Location: *
(60.1759°S, 155.0663°W)
Time: 01:49:49
(UTC+00:00)

Okean 3 - Pass Details

Date: 17 September 2019
Orbit: 578 x 600 km, 82.5° (Epoch: 15 October)

Event Time Altitude Azimuth Distance (km) Brightness Sun altitude
Rises 15:07:09 0° 196° (SSW) 2,876 7.0 -10.3°
Reaches altitude 10° 15:09:24 10° 199° (SSW) 1,963 6.1 -10.0°
Maximum altitude 15:13:41 60° 278° (W) 692 3.5 -9.5°
Drops below altitude 10° 15:17:52 10° 357° (N) 1,926 6.0 -8.9°
Sets 15:20:04 0° 0° (N) 2,817 6.8 -8.7°
